ギャラッド彗星

C/2008 P1 ( Garradd )

English version
Home page
Total 6,336 html files since Dec. 4, 1995
Updated on October 21, 2008

---------------------------------------------------------------------

・ プロフィール

発見日 2008年8月13日
発見光度 16.7等
発見者 G. J. Garradd (Siding Spring Survey)

・ 写真集

・ 軌道要素

Epoch 2009 July 28.0 TT = JDT 2455040.5
T 2009 July 22.91801 TT                                 MPC
q   3.8961628            (2000.0)            P               Q
z  -0.0004708      Peri.   11.86001     +0.98146017     -0.18815226
 +/-0.0000469      Node   357.67656     -0.02839331     +0.04577674
e   1.0018342      Incl.   64.30892     +0.18955144     +0.98107248

・ 星図

・ 光度変化

        m1 = 6.5 + 5 logΔ + 10.0 log r

---------------------------------------------------------------------

軌道要素はM.P.E.C. 2008-U16に掲載されたものです。
星図はステラナビゲータ Ver.8 (アストロアーツ) で作成したものです。
光度グラフはComet for Windowsで作成したものです。

---------------------------------------------------------------------

Copyright(C) 1995-2008 Seiichi Yoshida (comet@aerith.net). All rights reserved.